Location: ????? ??????
(37.8317°N, 23.8750°E)
Time: 13:19:41
(UTC+00:00)

USA 267 - Pass Details

Date: 20 January 2021
Orbit: 1099 x 1108 km, 123.0° (Epoch: 03 March)

Event Time Altitude Azimuth Distance (km) Brightness Sun altitude
Exits shadow 16:16:56 10° 69° (ENE) 2,959 4.8 -8.6°
Maximum altitude 16:22:15 26° 124° (SE) 2,002 4.3 -9.6°
Drops below altitude 10° 16:27:32 10° 179° (S) 2,951 5.7 -10.6°
Sets 16:30:28 0° 191° (S) 3,907 6.6 -11.1°
